| time (UTC) | temp F | wind direction | speed MPH | gust MPH | rain 1hr in | rain 24hr in | rain mn in | humidity % | barometer mb |
| 20260508084750 | 35 | 149 | 0.0 | 1.0 | 0.00 | 0.00 | 0.00 | 86 | 1012.1 |
| 20260508084248 | 36 | 148 | 0.0 | 0.0 | 0.00 | 0.00 | 0.00 | 86 | 1012.1 |
| 20260508083746 | 37 | 125 | 1.0 | 1.0 | 0.00 | 0.00 | 0.00 | 86 | 1012.0 |
| 20260508083243 | 36 | 92 | 2.0 | 3.0 | 0.00 | 0.00 | 0.00 | 86 | 1012.3 |
| 20260508082742 | 36 | 109 | 2.0 | 2.0 | 0.00 | 0.00 | 0.00 | 85 | 1012.2 |
| 20260508082241 | 36 | 106 | 1.0 | 2.0 | 0.00 | 0.00 | 0.00 | 85 | 1012.1 |
| 20260508081738 | 37 | 134 | 2.0 | 2.0 | 0.00 | 0.00 | 0.00 | 85 | 1011.9 |
| 20260508081234 | 37 | 140 | 0.0 | 0.0 | 0.00 | 0.00 | 0.00 | 85 | 1012.0 |
| 20260508080731 | 37 | 134 | 1.0 | 1.0 | 0.00 | 0.00 | 0.00 | 85 | 1011.9 |
| 20260508080229 | 38 | 126 | 1.0 | 1.0 | 0.00 | 0.00 | 0.00 | 85 | 1012.0 |
| 20260508075726 | 39 | 172 | 0.0 | 0.0 | 0.00 | 0.00 | 0.00 | 85 | 1011.9 |
| 20260508075222 | 39 | 172 | 0.0 | 0.0 | 0.00 | 0.00 | 0.00 | 85 | 1011.7 |
| 20260508074720 | 40 | 168 | 0.0 | 0.0 | 0.00 | 0.00 | 0.00 | 85 | 1011.8 |
| 20260508074218 | 40 | 51 | 3.0 | 5.0 | 0.00 | 0.00 | 0.00 | 85 | 1011.8 |
| 20260508073714 | 40 | 130 | 1.0 | 1.0 | 0.00 | 0.00 | 0.00 | 85 | 1011.8 |
| 20260508073213 | 40 | 169 | 0.0 | 0.0 | 0.00 | 0.00 | 0.00 | 85 | 1011.8 |
| 20260508072708 | 40 | 169 | 0.0 | 0.0 | 0.00 | 0.00 | 0.00 | 85 | 1011.8 |
| 20260508072205 | 40 | 169 | 0.0 | 0.0 | 0.00 | 0.00 | 0.00 | 85 | 1011.7 |
| 20260508071702 | 40 | 171 | 0.0 | 0.0 | 0.00 | 0.00 | 0.00 | 84 | 1012.0 |
| 20260508071201 | 40 | 200 | 1.0 | 2.0 | 0.00 | 0.00 | 0.00 | 84 | 1011.8 |
| 20260508070658 | 40 | 105 | 2.0 | 2.0 | 0.00 | 0.00 | 0.00 | 84 | 1011.7 |
| 20260508070157 | 40 | 131 | 1.0 | 1.0 | 0.00 | 0.00 | 0.00 | 84 | 1011.6 |
| 20260508065653 | 40 | 157 | 1.0 | 1.0 | 0.00 | 0.00 | 0.00 | 83 | 1011.5 |
| 20260508065151 | 40 | 160 | 0.0 | 0.0 | 0.00 | 0.00 | 0.00 | 83 | 1011.6 |
| 20260508064648 | 40 | 159 | 0.0 | 1.0 | 0.00 | 0.00 | 0.00 | 83 | 1011.7 |
| 20260508064147 | 40 | 182 | 0.0 | 0.0 | 0.00 | 0.00 | 0.00 | 82 | 1011.4 |
| 20260508063644 | 40 | 147 | 0.0 | 1.0 | 0.00 | 0.00 | 0.00 | 82 | 1011.5 |
| 20260508063141 | 40 | 164 | 0.0 | 0.0 | 0.00 | 0.00 | 0.00 | 81 | 1011.6 |
| 20260508062639 | 40 | 164 | 0.0 | 0.0 | 0.00 | 0.00 | 0.00 | 81 | 1011.4 |
| 20260508062135 | 40 | 163 | 0.0 | 0.0 | 0.00 | 0.00 | 0.00 | 80 | 1011.6 |
| 20260508061633 | 40 | 163 | 0.0 | 0.0 | 0.00 | 0.00 | 0.00 | 80 | 1011.3 |
| 20260508061130 | 40 | 165 | 0.0 | 0.0 | 0.00 | 0.00 | 0.00 | 79 | 1011.5 |
| 20260508060627 | 40 | 81 | 0.0 | 0.0 | 0.00 | 0.00 | 0.00 | 79 | 1011.5 |
| 20260508060124 | 40 | 327 | 3.0 | 3.0 | 0.00 | 0.00 | 0.00 | 79 | 1011.7 |
| 20260508055619 | 41 | 148 | 1.0 | 1.0 | 0.00 | 0.00 | 0.00 | 78 | 1011.6 |
| 20260508055116 | 41 | 168 | 0.0 | 0.0 | 0.00 | 0.00 | 0.00 | 77 | 1011.6 |
| 20260508054613 | 41 | 138 | 1.0 | 2.0 | 0.00 | 0.00 | 0.00 | 76 | 1011.7 |
| 20260508054111 | 41 | 174 | 0.0 | 0.0 | 0.00 | 0.00 | 0.00 | 75 | 1011.5 |
| 20260508053607 | 41 | 175 | 0.0 | 1.0 | 0.00 | 0.00 | 0.00 | 75 | 1011.9 |
| 20260508053105 | 41 | 76 | 3.0 | 3.0 | 0.00 | 0.00 | 0.00 | 75 | 1012.1 |
| 20260508052602 | 41 | 165 | 0.0 | 0.0 | 0.00 | 0.00 | 0.00 | 75 | 1011.9 |
| 20260508052059 | 41 | 159 | 0.0 | 0.0 | 0.00 | 0.00 | 0.00 | 75 | 1011.9 |
| 20260508051555 | 41 | 156 | 0.0 | 0.0 | 0.00 | 0.00 | 0.00 | 75 | 1011.7 |
| 20260508051051 | 41 | 166 | 0.0 | 0.0 | 0.00 | 0.00 | 0.00 | 76 | 1011.9 |
| 20260508050547 | 41 | 144 | 1.0 | 1.0 | 0.00 | 0.00 | 0.00 | 77 | 1011.7 |
| 20260508050045 | 41 | 175 | 0.0 | 0.0 | 0.00 | 0.00 | 0.00 | 79 | 1011.8 |
| 20260508045541 | 40 | 165 | 0.0 | 0.0 | 0.00 | 0.00 | 0.00 | 80 | 1011.9 |
| 20260508045038 | 40 | 121 | 0.0 | 0.0 | 0.00 | 0.00 | 0.00 | 82 | 1011.8 |
| 20260508044536 | 39 | 84 | 0.0 | 1.0 | 0.00 | 0.00 | 0.00 | 84 | 1012.1 |
| 20260508044031 | 39 | 45 | 3.0 | 3.0 | 0.00 | 0.00 | 0.00 | 84 | 1012.1 |
| 20260508043528 | 39 | 154 | 0.0 | 1.0 | 0.00 | 0.00 | 0.00 | 84 | 1012.1 |
| 20260508043026 | 39 | 167 | 1.0 | 1.0 | 0.00 | 0.00 | 0.00 | 84 | 1012.0 |
| 20260508042522 | 39 | 155 | 0.0 | 0.0 | 0.00 | 0.00 | 0.00 | 84 | 1011.7 |
| 20260508042020 | 39 | 130 | 1.0 | 1.0 | 0.00 | 0.00 | 0.00 | 84 | 1011.6 |
| 20260508041516 | 39 | 175 | 0.0 | 0.0 | 0.00 | 0.00 | 0.00 | 84 | 1011.6 |
| 20260508041013 | 38 | 175 | 0.0 | 0.0 | 0.00 | 0.00 | 0.00 | 84 | 1011.8 |
| 20260508040510 | 38 | 175 | 0.0 | 0.0 | 0.00 | 0.00 | 0.00 | 83 | 1011.8 |
| 20260508040007 | 39 | 175 | 0.0 | 0.0 | 0.00 | 0.02 | 0.02 | 83 | 1011.7 |
| 20260508035504 | 39 | 175 | 0.0 | 0.0 | 0.00 | 0.02 | 0.02 | 83 | 1011.7 |
| 20260508035001 | 39 | 175 | 0.0 | 0.0 | 0.00 | 0.02 | 0.02 | 83 | 1011.6 |
| 20260508034458 | 39 | 176 | 0.0 | 0.0 | 0.00 | 0.02 | 0.02 | 82 | 1011.8 |
| 20260508033955 | 39 | 176 | 0.0 | 0.0 | 0.00 | 0.02 | 0.02 | 82 | 1011.8 |
| 20260508033453 | 39 | 176 | 0.0 | 0.0 | 0.00 | 0.02 | 0.02 | 82 | 1011.8 |
| 20260508032950 | 39 | 177 | 0.0 | 0.0 | 0.00 | 0.02 | 0.02 | 82 | 1011.8 |
| 20260508032447 | 39 | 153 | 0.0 | 0.0 | 0.00 | 0.02 | 0.02 | 81 | 1011.6 |
| 20260508031944 | 39 | 155 | 1.0 | 1.0 | 0.00 | 0.02 | 0.02 | 81 | 1011.6 |
| 20260508031436 | 39 | 157 | 1.0 | 1.0 | 0.00 | 0.02 | 0.02 | 80 | 1011.3 |
| 20260508030931 | 39 | 147 | 0.0 | 0.0 | 0.00 | 0.02 | 0.02 | 80 | 1011.3 |
| 20260508030429 | 39 | 147 | 0.0 | 0.0 | 0.00 | 0.02 | 0.02 | 80 | 1011.4 |
| 20260508025926 | 39 | 131 | 1.0 | 2.0 | 0.00 | 0.02 | 0.02 | 79 | 1011.1 |
| 20260508025423 | 39 | 169 | 0.0 | 0.0 | 0.00 | 0.02 | 0.02 | 78 | 1011.3 |
| 20260508024919 | 39 | 178 | 1.0 | 1.0 | 0.00 | 0.02 | 0.02 | 77 | 1011.3 |
| 20260508024416 | 39 | 156 | 0.0 | 0.0 | 0.00 | 0.02 | 0.02 | 76 | 1010.9 |
| 20260508023913 | 39 | 156 | 0.0 | 0.0 | 0.00 | 0.02 | 0.02 | 76 | 1011.1 |
| 20260508023410 | 39 | 146 | 0.0 | 0.0 | 0.00 | 0.02 | 0.02 | 75 | 1011.1 |
| 20260508022907 | 39 | 97 | 2.0 | 2.0 | 0.00 | 0.02 | 0.02 | 75 | 1011.2 |
| 20260508022402 | 39 | 132 | 2.0 | 2.0 | 0.00 | 0.02 | 0.02 | 74 | 1011.3 |
| 20260508021859 | 39 | 141 | 0.0 | 1.0 | 0.00 | 0.02 | 0.02 | 73 | 1011.2 |
| 20260508021355 | 39 | 103 | 2.0 | 2.0 | 0.00 | 0.02 | 0.02 | 73 | 1011.3 |
| 20260508020851 | 39 | 110 | 2.0 | 2.0 | 0.00 | 0.02 | 0.02 | 73 | 1011.0 |
| 20260508020349 | 39 | 148 | 0.0 | 0.0 | 0.00 | 0.02 | 0.02 | 72 | 1010.9 |
| 20260508015846 | 40 | 149 | 0.0 | 0.0 | 0.00 | 0.02 | 0.02 | 71 | 1011.0 |
| 20260508015344 | 40 | 75 | 2.0 | 2.0 | 0.00 | 0.02 | 0.02 | 71 | 1010.8 |
| 20260508014840 | 41 | 89 | 2.0 | 2.0 | 0.00 | 0.02 | 0.02 | 70 | 1011.2 |
| 20260508014338 | 41 | 124 | 1.0 | 1.0 | 0.00 | 0.02 | 0.02 | 68 | 1011.0 |
| 20260508013838 | 42 | 34 | 2.0 | 2.0 | 0.00 | 0.02 | 0.02 | 66 | 1010.8 |
| 20260508013335 | 42 | 34 | 3.0 | 3.0 | 0.00 | 0.02 | 0.02 | 65 | 1010.8 |
| 20260508012832 | 43 | 28 | 3.0 | 3.0 | 0.00 | 0.02 | 0.02 | 64 | 1010.9 |
| 20260508012329 | 43 | 32 | 3.0 | 3.0 | 0.00 | 0.02 | 0.02 | 63 | 1010.8 |
| 20260508011827 | 43 | 20 | 4.0 | 5.0 | 0.00 | 0.02 | 0.02 | 64 | 1011.0 |
| 20260508011324 | 43 | 45 | 2.0 | 2.0 | 0.00 | 0.02 | 0.02 | 64 | 1010.8 |
| 20260508010821 | 43 | 81 | 2.0 | 2.0 | 0.00 | 0.02 | 0.02 | 64 | 1010.8 |
| 20260508010319 | 43 | 23 | 3.0 | 3.0 | 0.00 | 0.02 | 0.02 | 65 | 1010.9 |
| 20260508005816 | 44 | 94 | 2.0 | 2.0 | 0.00 | 0.02 | 0.02 | 63 | 1010.9 |
| 20260508005312 | 45 | 74 | 1.0 | 2.0 | 0.00 | 0.02 | 0.02 | 60 | 1010.5 |
| 20260508004808 | 46 | 107 | 1.0 | 2.0 | 0.00 | 0.02 | 0.02 | 60 | 1010.8 |
| 20260508004259 | 46 | 38 | 3.0 | 3.0 | 0.00 | 0.02 | 0.02 | 62 | 1010.6 |
| 20260508003755 | 47 | 234 | 0.0 | 1.0 | 0.00 | 0.02 | 0.02 | 58 | 1010.6 |
| 20260508003254 | 48 | 8 | 3.0 | 3.0 | 0.00 | 0.02 | 0.02 | 57 | 1010.4 |
| 20260508002749 | 48 | 66 | 2.0 | 2.0 | 0.00 | 0.02 | 0.02 | 57 | 1010.6 |
| 20260508002247 | 48 | 353 | 3.0 | 3.0 | 0.00 | 0.02 | 0.02 | 56 | 1010.2 |
| 20260508001743 | 48 | 286 | 2.0 | 2.0 | 0.00 | 0.02 | 0.02 | 56 | 1010.3 |
| 20260508001238 | 49 | 96 | 1.0 | 2.0 | 0.00 | 0.02 | 0.02 | 55 | 1010.3 |
| 20260508000735 | 49 | 23 | 2.0 | 2.0 | 0.00 | 0.02 | 0.02 | 57 | 1010.3 |
| 20260508000234 | 49 | 163 | 0.0 | 1.0 | 0.00 | 0.02 | 0.02 | 57 | 1010.2 |
| 20260507235728 | 50 | 124 | 1.0 | 1.0 | 0.00 | 0.02 | 0.02 | 56 | 1010.0 |
| 20260507235226 | 50 | 285 | 5.0 | 6.0 | 0.00 | 0.02 | 0.02 | 52 | 1009.8 |
| 20260507234723 | 50 | 254 | 2.0 | 2.0 | 0.00 | 0.02 | 0.02 | 53 | 1010.2 |
| 20260507234219 | 51 | 239 | 1.0 | 1.0 | 0.00 | 0.02 | 0.02 | 52 | 1010.0 |
| 20260507233716 | 51 | 185 | 0.0 | 0.0 | 0.00 | 0.02 | 0.02 | 54 | 1009.8 |
| 20260507233214 | 51 | 194 | 1.0 | 1.0 | 0.00 | 0.02 | 0.02 | 51 | 1009.7 |
| 20260507232710 | 51 | 298 | 3.0 | 3.0 | 0.00 | 0.02 | 0.02 | 50 | 1010.1 |
| 20260507232208 | 51 | 298 | 3.0 | 3.0 | 0.00 | 0.02 | 0.02 | 51 | 1010.0 |
| 20260507231704 | 52 | 328 | 2.0 | 2.0 | 0.00 | 0.02 | 0.02 | 50 | 1010.0 |
| 20260507231201 | 52 | 290 | 3.0 | 5.0 | 0.00 | 0.02 | 0.02 | 49 | 1009.8 |
| 20260507230658 | 52 | 165 | 1.0 | 1.0 | 0.00 | 0.02 | 0.02 | 49 | 1009.7 |
| 20260507230155 | 52 | 329 | 3.0 | 3.0 | 0.00 | 0.02 | 0.02 | 50 | 1009.8 |
| 20260507225655 | 52 | 268 | 2.0 | 3.0 | 0.00 | 0.02 | 0.02 | 49 | 1009.8 |
| 20260507225152 | 53 | 209 | 1.0 | 2.0 | 0.00 | 0.02 | 0.02 | 49 | 1009.8 |
| 20260507224647 | 54 | 254 | 1.0 | 2.0 | 0.00 | 0.02 | 0.02 | 49 | 1009.8 |
| 20260507224144 | 52 | 345 | 1.0 | 2.0 | 0.00 | 0.02 | 0.02 | 51 | 1009.8 |
| 20260507223640 | 51 | 285 | 1.0 | 2.0 | 0.00 | 0.02 | 0.02 | 51 | 1009.7 |
| 20260507223137 | 51 | 237 | 2.0 | 2.0 | 0.00 | 0.02 | 0.02 | 49 | 1009.8 |
| 20260507222634 | 52 | 330 | 3.0 | 5.0 | 0.00 | 0.02 | 0.02 | 50 | 1009.6 |
| 20260507222130 | 52 | 217 | 1.0 | 2.0 | 0.00 | 0.02 | 0.02 | 50 | 1009.7 |
| 20260507221627 | 52 | 269 | 3.0 | 3.0 | 0.00 | 0.02 | 0.02 | 48 | 1010.0 |
| 20260507221123 | 53 | 147 | 0.0 | 1.0 | 0.00 | 0.02 | 0.02 | 49 | 1009.8 |
| 20260507220620 | 53 | 281 | 6.0 | 7.0 | 0.00 | 0.02 | 0.02 | 47 | 1009.7 |
| 20260507220118 | 52 | 130 | 2.0 | 2.0 | 0.00 | 0.02 | 0.02 | 50 | 1009.8 |
| 20260507215614 | 52 | 0 | 8.0 | 11.0 | 0.00 | 0.02 | 0.02 | 49 | 1009.8 |
| 20260507215112 | 52 | 319 | 3.0 | 5.0 | 0.00 | 0.02 | 0.02 | 49 | 1010.1 |
| 20260507214609 | 52 | 194 | 2.0 | 3.0 | 0.00 | 0.02 | 0.02 | 48 | 1010.2 |
| 20260507214105 | 52 | 290 | 2.0 | 3.0 | 0.00 | 0.02 | 0.02 | 49 | 1010.1 |
| 20260507213601 | 53 | 301 | 3.0 | 5.0 | 0.00 | 0.02 | 0.02 | 49 | 1010.0 |
| 20260507213059 | 54 | 202 | 1.0 | 1.0 | 0.00 | 0.02 | 0.02 | 48 | 1010.2 |
| 20260507212554 | 54 | 300 | 3.0 | 3.0 | 0.00 | 0.02 | 0.02 | 50 | 1010.1 |
| 20260507212051 | 55 | 303 | 5.0 | 7.0 | 0.00 | 0.02 | 0.02 | 47 | 1010.1 |
| 20260507211548 | 54 | 339 | 4.0 | 5.0 | 0.00 | 0.02 | 0.02 | 48 | 1010.1 |
| 20260507211044 | 54 | 332 | 8.0 | 9.0 | 0.00 | 0.02 | 0.02 | 49 | 1010.3 |
| 20260507210542 | 54 | 323 | 7.0 | 10.0 | 0.00 | 0.02 | 0.02 | 49 | 1010.3 |
| 20260507210038 | 56 | 220 | 2.0 | 2.0 | 0.00 | 0.02 | 0.02 | 47 | 1010.1 |
| 20260507205535 | 55 | 253 | 6.0 | 7.0 | 0.00 | 0.02 | 0.02 | 47 | 1009.8 |
| 20260507205031 | 55 | 237 | 6.0 | 8.0 | 0.00 | 0.02 | 0.02 | 47 | 1009.8 |
| 20260507204527 | 55 | 305 | 5.0 | 6.0 | 0.00 | 0.02 | 0.02 | 49 | 1009.7 |
| 20260507204025 | 54 | 237 | 3.0 | 3.0 | 0.00 | 0.02 | 0.02 | 50 | 1010.3 |
| 20260507203523 | 54 | 52 | 4.0 | 6.0 | 0.00 | 0.02 | 0.02 | 51 | 1010.1 |
| 20260507203020 | 53 | 332 | 4.0 | 5.0 | 0.00 | 0.02 | 0.02 | 52 | 1010.0 |
| 20260507202516 | 53 | 299 | 4.0 | 6.0 | 0.00 | 0.02 | 0.02 | 49 | 1010.0 |
| 20260507202012 | 54 | 269 | 6.0 | 9.0 | 0.00 | 0.02 | 0.02 | 48 | 1010.2 |
| 20260507201508 | 55 | 291 | 8.0 | 9.0 | 0.00 | 0.02 | 0.02 | 46 | 1010.1 |
| 20260507201004 | 55 | 289 | 5.0 | 7.0 | 0.00 | 0.02 | 0.02 | 47 | 1010.3 |
| 20260507200500 | 53 | 237 | 4.0 | 5.0 | 0.00 | 0.02 | 0.02 | 49 | 1010.0 |
| 20260507195955 | 53 | 271 | 4.0 | 6.0 | 0.00 | 0.02 | 0.02 | 49 | 1010.2 |
| 20260507195454 | 54 | 280 | 9.0 | 11.0 | 0.00 | 0.02 | 0.02 | 46 | 1010.3 |
| 20260507194951 | 55 | 352 | 7.0 | 9.0 | 0.00 | 0.02 | 0.02 | 47 | 1010.0 |
| 20260507194447 | 55 | 304 | 7.0 | 8.0 | 0.00 | 0.02 | 0.02 | 49 | 1010.2 |
| 20260507193943 | 56 | 273 | 3.0 | 6.0 | 0.00 | 0.02 | 0.02 | 46 | 1010.3 |
| 20260507193440 | 54 | 265 | 4.0 | 6.0 | 0.00 | 0.02 | 0.02 | 47 | 1010.3 |
| 20260507192937 | 56 | 185 | 1.0 | 1.0 | 0.00 | 0.02 | 0.02 | 48 | 1010.4 |
| 20260507192433 | 55 | 9 | 3.0 | 3.0 | 0.00 | 0.02 | 0.02 | 52 | 1010.6 |
| 20260507191930 | 53 | 93 | 2.0 | 3.0 | 0.00 | 0.02 | 0.02 | 53 | 1010.7 |
| 20260507191426 | 52 | 46 | 2.0 | 5.0 | 0.00 | 0.02 | 0.02 | 52 | 1010.7 |
| 20260507190923 | 52 | 304 | 9.0 | 11.0 | 0.00 | 0.02 | 0.02 | 50 | 1010.7 |
| 20260507190421 | 53 | 258 | 6.0 | 7.0 | 0.00 | 0.02 | 0.02 | 49 | 1010.5 |
| 20260507185920 | 53 | 1 | 3.0 | 5.0 | 0.00 | 0.02 | 0.02 | 50 | 1010.6 |
| 20260507185417 | 52 | 197 | 5.0 | 6.0 | 0.00 | 0.02 | 0.02 | 49 | 1010.7 |
| 20260507184913 | 52 | 307 | 3.0 | 5.0 | 0.00 | 0.02 | 0.02 | 51 | 1010.9 |
| 20260507184411 | 53 | 240 | 4.0 | 5.0 | 0.00 | 0.02 | 0.02 | 51 | 1010.8 |
| 20260507183908 | 53 | 170 | 2.0 | 2.0 | 0.00 | 0.02 | 0.02 | 50 | 1010.7 |
| 20260507183405 | 54 | 290 | 4.0 | 5.0 | 0.00 | 0.02 | 0.02 | 49 | 1010.7 |
| 20260507182903 | 53 | 275 | 3.0 | 3.0 | 0.00 | 0.02 | 0.02 | 49 | 1011.0 |
| 20260507182358 | 53 | 243 | 3.0 | 5.0 | 0.00 | 0.02 | 0.02 | 48 | 1011.2 |
| 20260507181855 | 53 | 303 | 10.0 | 13.0 | 0.00 | 0.02 | 0.02 | 48 | 1011.0 |
| 20260507181350 | 53 | 307 | 5.0 | 7.0 | 0.00 | 0.02 | 0.02 | 48 | 1011.0 |
| 20260507180848 | 53 | 292 | 6.0 | 7.0 | 0.00 | 0.02 | 0.02 | 48 | 1010.8 |
| 20260507180344 | 54 | 295 | 5.0 | 7.0 | 0.00 | 0.02 | 0.02 | 48 | 1011.0 |
| 20260507175840 | 52 | 201 | 1.0 | 2.0 | 0.00 | 0.02 | 0.02 | 49 | 1011.2 |
| 20260507175337 | 53 | 318 | 3.0 | 7.0 | 0.00 | 0.02 | 0.02 | 49 | 1011.4 |
| 20260507174835 | 53 | 13 | 3.0 | 5.0 | 0.00 | 0.02 | 0.02 | 49 | 1011.1 |
| 20260507174332 | 53 | 314 | 3.0 | 3.0 | 0.00 | 0.02 | 0.02 | 50 | 1011.3 |
| 20260507173829 | 53 | 345 | 8.0 | 11.0 | 0.00 | 0.02 | 0.02 | 48 | 1011.1 |
| 20260507173326 | 53 | 120 | 2.0 | 3.0 | 0.00 | 0.02 | 0.02 | 50 | 1011.2 |
| 20260507172822 | 53 | 221 | 2.0 | 2.0 | 0.00 | 0.02 | 0.02 | 48 | 1011.2 |
| 20260507172319 | 54 | 291 | 5.0 | 7.0 | 0.00 | 0.02 | 0.02 | 47 | 1011.2 |
| 20260507171815 | 54 | 201 | 1.0 | 1.0 | 0.00 | 0.02 | 0.02 | 48 | 1011.2 |
| 20260507171312 | 54 | 237 | 3.0 | 6.0 | 0.00 | 0.02 | 0.02 | 47 | 1011.2 |
| 20260507170809 | 54 | 261 | 3.0 | 5.0 | 0.00 | 0.02 | 0.02 | 48 | 1011.3 |
| 20260507170306 | 55 | 296 | 6.0 | 9.0 | 0.00 | 0.02 | 0.02 | 46 | 1011.4 |
| 20260507165801 | 53 | 208 | 5.0 | 7.0 | 0.00 | 0.02 | 0.02 | 51 | 1011.6 |
| 20260507165258 | 52 | 258 | 9.0 | 11.0 | 0.00 | 0.02 | 0.02 | 50 | 1011.4 |
| 20260507164754 | 52 | 302 | 5.0 | 7.0 | 0.00 | 0.02 | 0.02 | 49 | 1011.6 |
| 20260507164251 | 53 | 316 | 8.0 | 13.0 | 0.00 | 0.02 | 0.02 | 49 | 1011.4 |
| 20260507163748 | 53 | 226 | 6.0 | 8.0 | 0.00 | 0.02 | 0.02 | 49 | 1011.4 |
| 20260507163246 | 52 | 268 | 5.0 | 7.0 | 0.00 | 0.02 | 0.02 | 49 | 1011.8 |
| 20260507162742 | 52 | 247 | 7.0 | 7.0 | 0.00 | 0.02 | 0.02 | 49 | 1011.7 |
| 20260507162238 | 52 | 286 | 7.0 | 9.0 | 0.00 | 0.02 | 0.02 | 48 | 1011.9 |
| 20260507161735 | 52 | 262 | 4.0 | 5.0 | 0.00 | 0.02 | 0.02 | 48 | 1011.7 |
| 20260507161231 | 53 | 253 | 1.0 | 2.0 | 0.00 | 0.02 | 0.02 | 50 | 1011.8 |
| 20260507160727 | 53 | 282 | 5.0 | 6.0 | 0.00 | 0.02 | 0.02 | 49 | 1012.0 |
| 20260507160224 | 53 | 123 | 1.0 | 1.0 | 0.00 | 0.02 | 0.02 | 50 | 1011.9 |
| 20260507155720 | 54 | 294 | 8.0 | 9.0 | 0.00 | 0.02 | 0.02 | 48 | 1012.0 |
| 20260507155216 | 52 | 219 | 4.0 | 6.0 | 0.00 | 0.02 | 0.02 | 51 | 1012.0 |
| 20260507154713 | 51 | 219 | 3.0 | 3.0 | 0.00 | 0.02 | 0.02 | 53 | 1012.3 |
| 20260507154211 | 51 | 281 | 5.0 | 6.0 | 0.00 | 0.02 | 0.02 | 51 | 1012.1 |
| 20260507153707 | 52 | 22 | 3.0 | 5.0 | 0.00 | 0.02 | 0.02 | 50 | 1012.0 |
| 20260507153203 | 52 | 66 | 3.0 | 3.0 | 0.00 | 0.02 | 0.02 | 53 | 1012.2 |
| 20260507152700 | 51 | 113 | 1.0 | 1.0 | 0.00 | 0.02 | 0.02 | 52 | 1012.2 |
| 20260507152156 | 50 | 24 | 4.0 | 5.0 | 0.00 | 0.02 | 0.02 | 52 | 1012.3 |
| 20260507151652 | 52 | 328 | 7.0 | 9.0 | 0.00 | 0.02 | 0.02 | 49 | 1012.2 |
| 20260507151149 | 52 | 164 | 0.0 | 0.0 | 0.00 | 0.02 | 0.02 | 50 | 1012.5 |
| 20260507150646 | 51 | 6 | 3.0 | 3.0 | 0.00 | 0.02 | 0.02 | 50 | 1012.3 |
| 20260507150143 | 50 | 78 | 4.0 | 5.0 | 0.00 | 0.02 | 0.02 | 51 | 1012.5 |
| 20260507145638 | 53 | 99 | 2.0 | 2.0 | 0.00 | 0.02 | 0.02 | 52 | 1012.4 |
| 20260507145136 | 53 | 234 | 3.0 | 3.0 | 0.00 | 0.02 | 0.02 | 47 | 1012.8 |
| 20260507144632 | 52 | 266 | 5.0 | 6.0 | 0.00 | 0.02 | 0.02 | 49 | 1012.7 |
| 20260507144130 | 51 | 151 | 2.0 | 2.0 | 0.00 | 0.02 | 0.02 | 50 | 1012.8 |
| 20260507143626 | 51 | 194 | 1.0 | 1.0 | 0.00 | 0.02 | 0.02 | 48 | 1012.8 |
| 20260507143124 | 51 | 232 | 2.0 | 3.0 | 0.00 | 0.02 | 0.02 | 49 | 1012.8 |
| 20260507142619 | 51 | 279 | 4.0 | 8.0 | 0.00 | 0.02 | 0.02 | 50 | 1012.8 |
| 20260507142116 | 50 | 60 | 2.0 | 2.0 | 0.00 | 0.02 | 0.02 | 50 | 1012.7 |
| 20260507141612 | 50 | 179 | 1.0 | 1.0 | 0.00 | 0.02 | 0.02 | 52 | 1012.8 |
| 20260507141109 | 50 | 301 | 2.0 | 5.0 | 0.00 | 0.02 | 0.02 | 55 | 1012.6 |
| 20260507140606 | 50 | 222 | 3.0 | 3.0 | 0.00 | 0.02 | 0.02 | 56 | 1012.7 |
| 20260507140103 | 49 | 180 | 2.0 | 3.0 | 0.00 | 0.02 | 0.02 | 58 | 1012.8 |
| 20260507135600 | 49 | 343 | 3.0 | 5.0 | 0.00 | 0.02 | 0.02 | 57 | 1013.0 |
| 20260507135058 | 48 | 229 | 2.0 | 3.0 | 0.00 | 0.02 | 0.02 | 62 | 1012.9 |
| 20260507134554 | 48 | 335 | 3.0 | 5.0 | 0.00 | 0.02 | 0.02 | 63 | 1013.1 |
| 20260507134050 | 48 | 162 | 1.0 | 1.0 | 0.00 | 0.02 | 0.02 | 63 | 1013.1 |
| 20260507133546 | 48 | 157 | 1.0 | 1.0 | 0.00 | 0.02 | 0.02 | 64 | 1013.0 |
| 20260507133044 | 46 | 118 | 1.0 | 2.0 | 0.00 | 0.02 | 0.02 | 67 | 1013.1 |
| 20260507132540 | 46 | 204 | 0.0 | 1.0 | 0.00 | 0.02 | 0.02 | 69 | 1013.0 |
| 20260507132036 | 46 | 303 | 4.0 | 5.0 | 0.00 | 0.02 | 0.02 | 68 | 1013.1 |
| 20260507131534 | 46 | 205 | 3.0 | 3.0 | 0.00 | 0.02 | 0.02 | 70 | 1012.9 |
| 20260507131031 | 45 | 108 | 2.0 | 2.0 | 0.00 | 0.02 | 0.02 | 69 | 1013.0 |
| 20260507130528 | 45 | 143 | 1.0 | 1.0 | 0.00 | 0.02 | 0.02 | 70 | 1013.3 |
| 20260507130026 | 45 | 338 | 3.0 | 5.0 | 0.00 | 0.02 | 0.02 | 70 | 1013.5 |
| 20260507125524 | 44 | 94 | 1.0 | 2.0 | 0.00 | 0.02 | 0.02 | 71 | 1013.1 |
| 20260507125021 | 44 | 39 | 3.0 | 3.0 | 0.00 | 0.02 | 0.02 | 72 | 1013.1 |
| 20260507124517 | 44 | 344 | 2.0 | 3.0 | 0.00 | 0.02 | 0.02 | 73 | 1013.5 |
| 20260507124016 | 44 | 324 | 4.0 | 5.0 | 0.00 | 0.02 | 0.02 | 75 | 1013.0 |
| 20260507123513 | 43 | 170 | 0.0 | 0.0 | 0.00 | 0.02 | 0.02 | 77 | 1013.3 |
| 20260507123010 | 43 | 43 | 1.0 | 2.0 | 0.00 | 0.02 | 0.02 | 78 | 1013.5 |
| 20260507122504 | 42 | 122 | 1.0 | 1.0 | 0.00 | 0.02 | 0.02 | 81 | 1013.4 |
| 20260507122001 | 42 | 276 | 3.0 | 3.0 | 0.00 | 0.02 | 0.02 | 83 | 1013.1 |
| 20260507121456 | 42 | 206 | 1.0 | 2.0 | 0.00 | 0.02 | 0.02 | 85 | 1013.4 |
| 20260507120948 | 41 | 199 | 1.0 | 2.0 | 0.00 | 0.02 | 0.02 | 86 | 1013.6 |
| 20260507120444 | 40 | 299 | 2.0 | 2.0 | 0.00 | 0.02 | 0.02 | 87 | 1013.1 |
| 20260507115941 | 40 | 289 | 2.0 | 2.0 | 0.00 | 0.02 | 0.02 | 89 | 1013.0 |
| 20260507115436 | 40 | 195 | 1.0 | 2.0 | 0.00 | 0.02 | 0.02 | 90 | 1012.9 |
| 20260507114932 | 40 | 279 | 2.0 | 2.0 | 0.00 | 0.02 | 0.02 | 90 | 1013.1 |
| 20260507114429 | 40 | 173 | 1.0 | 1.0 | 0.00 | 0.02 | 0.02 | 91 | 1012.9 |
| 20260507113927 | 40 | 168 | 0.0 | 1.0 | 0.00 | 0.02 | 0.02 | 91 | 1013.1 |
| 20260507113423 | 39 | 168 | 1.0 | 1.0 | 0.00 | 0.02 | 0.02 | 91 | 1013.0 |
| 20260507112921 | 39 | 184 | 1.0 | 1.0 | 0.00 | 0.02 | 0.02 | 91 | 1012.9 |
| 20260507112418 | 39 | 163 | 0.0 | 0.0 | 0.00 | 0.02 | 0.02 | 91 | 1013.3 |
| 20260507111915 | 39 | 175 | 1.0 | 1.0 | 0.00 | 0.02 | 0.02 | 91 | 1013.1 |
| 20260507111413 | 39 | 148 | 0.0 | 0.0 | 0.00 | 0.02 | 0.02 | 92 | 1013.0 |
| 20260507110909 | 37 | 141 | 0.0 | 0.0 | 0.00 | 0.02 | 0.02 | 92 | 1012.6 |
| 20260507110405 | 37 | 139 | 0.0 | 0.0 | 0.00 | 0.02 | 0.02 | 92 | 1012.7 |
| 20260507105901 | 36 | 126 | 1.0 | 1.0 | 0.00 | 0.02 | 0.02 | 92 | 1012.9 |
| 20260507105358 | 36 | 125 | 1.0 | 1.0 | 0.00 | 0.02 | 0.02 | 91 | 1012.9 |
| 20260507104855 | 35 | 147 | 0.0 | 1.0 | 0.00 | 0.02 | 0.02 | 91 | 1012.7 |
| 20260507104352 | 35 | 117 | 1.0 | 1.0 | 0.00 | 0.02 | 0.02 | 91 | 1012.9 |
| 20260507103848 | 34 | 128 | 1.0 | 1.0 | 0.00 | 0.02 | 0.02 | 91 | 1012.8 |
| 20260507103344 | 34 | 133 | 0.0 | 0.0 | 0.00 | 0.02 | 0.02 | 91 | 1012.9 |
| 20260507102841 | 34 | 148 | 0.0 | 0.0 | 0.00 | 0.02 | 0.02 | 91 | 1012.9 |
| 20260507102337 | 34 | 147 | 0.0 | 0.0 | 0.00 | 0.02 | 0.02 | 91 | 1012.6 |
| 20260507101833 | 34 | 139 | 1.0 | 1.0 | 0.00 | 0.02 | 0.02 | 91 | 1012.5 |
| 20260507101328 | 35 | 149 | 0.0 | 0.0 | 0.00 | 0.02 | 0.02 | 90 | 1012.7 |
| 20260507100826 | 35 | 162 | 0.0 | 0.0 | 0.00 | 0.02 | 0.02 | 90 | 1012.7 |
| 20260507100324 | 35 | 103 | 2.0 | 2.0 | 0.00 | 0.02 | 0.02 | 90 | 1012.3 |
| 20260507095821 | 35 | 128 | 1.0 | 1.0 | 0.00 | 0.02 | 0.02 | 90 | 1012.5 |
| 20260507095317 | 35 | 117 | 1.0 | 1.0 | 0.00 | 0.02 | 0.02 | 90 | 1012.4 |
| 20260507094815 | 35 | 151 | 0.0 | 0.0 | 0.00 | 0.02 | 0.02 | 90 | 1012.4 |
| 20260507094311 | 36 | 126 | 1.0 | 1.0 | 0.00 | 0.02 | 0.02 | 90 | 1012.6 |
| 20260507093808 | 35 | 91 | 2.0 | 3.0 | 0.00 | 0.02 | 0.02 | 89 | 1012.5 |
| 20260507093307 | 36 | 112 | 1.0 | 1.0 | 0.00 | 0.02 | 0.02 | 89 | 1012.8 |
| 20260507092804 | 36 | 86 | 2.0 | 2.0 | 0.00 | 0.02 | 0.02 | 89 | 1012.7 |
| 20260507092300 | 36 | 128 | 1.0 | 1.0 | 0.00 | 0.02 | 0.02 | 89 | 1012.5 |
| 20260507091757 | 36 | 126 | 1.0 | 1.0 | 0.00 | 0.02 | 0.02 | 88 | 1012.7 |
| 20260507091253 | 37 | 80 | 1.0 | 2.0 | 0.00 | 0.02 | 0.02 | 88 | 1012.7 |
| 20260507090748 | 37 | 111 | 2.0 | 2.0 | 0.00 | 0.02 | 0.02 | 88 | 1012.6 |
| 20260507090245 | 37 | 133 | 1.0 | 1.0 | 0.00 | 0.02 | 0.02 | 87 | 1012.7 |
| 20260507085742 | 37 | 101 | 2.0 | 2.0 | 0.00 | 0.02 | 0.02 | 87 | 1012.6 |
| 20260507085239 | 38 | 138 | 0.0 | 1.0 | 0.00 | 0.02 | 0.02 | 87 | 1012.5 |